EHI
0 0 0 1 2 3 2 1 0 0 0 0 0 0 0 0 1 2 3 7 13 19 23 20 14 11 9 7 5 2 0 0 0 0 1 0 0 0 0 0 0 0 0
0 0 0 0 1 2 1 0 0 0 0 0 0 0 0 0 1 3 4 5 8 12 15 16 15 13 12 9 6 4 1 1 0 0 1 0 0 0 0 0 0 0 0
0 0 0 0 0 0 0 0 0 0 0 0 0 0 0 0 0 2 3 3 3 4 6 9 12 14 12 10 8 6 4 3 1 1 1 0 0 0 0 0 0 0 0
0 0 0 0 0 0 0 0 0 0 0 0 0 0 0 0 0 0 1 1 1 0 1 4 8 10 10 9 9 9 8 6 4 3 1 1 1 1 0 0 0 0 0
0 0 0 0 0 0 0 0 0 0 0 0 0 0 0 0 0 0 0 0 0 0 0 2 4 6 7 7 8 9 10 9 8 6 3 2 2 1 0 0 0 0 0
0 0 0 0 0 0 0 0 0 0 0 0 0 0 0 0 0 0 0 0 0 0 0 0 1 3 5 5 5 7 8 9 9 7 5 3 2 1 0 0 0 0 0
0 0 0 0 0 0 0 0 0 0 0 0 0 0 0 0 0 0 0 0 0 0 0 0 0 1 2 2 2 4 6 7 7 6 5 4 3 2 1 0 0 0 0
0 0 0 0 0 0 0 0 0 0 0 0 0 0 0 0 0 0 0 0 0 0 0 0 0 1 1 1 1 2 5 6 5 4 3 4 5 5 2 0 0 0 0
0 0 0 0 0 0 0 0 0 0 0 0 0 0 0 0 0 0 0 0 0 0 0 0 0 0 0 1 1 1 3 4 4 2 1 3 5 5 3 1 0 0 0
0 0 0 0 0 0 0 0 0 0 0 0 0 0 0 0 0 0 0 0 0 0 0 0 0 0 0 0 0 0 1 1 2 1 1 2 2 2 2 1 0 0 0
0 0 0 0 0 0 0 0 0 0 0 0 0 0 0 0 0 0 0 0 0 0 0 0 0 0 0 0 0 0 0 0 0 0 1 1 0 1 2 1 0 0 0
0 0 0 0 0 0 0 0 0 0 0 0 0 0 0 0 0 0 0 0 0 0 0 0 0 0 0 0 0 0 0 0 0 0 0 0 0 2 3 2 1 0 0
0 0 0 0 0 0 0 0 0 0 0 0 0 0 0 0 0 0 0 0 0 0 0 0 0 0 0 0 0 0 0 0 0 0 0 0 0 1 2 2 2 1 0
0 0 0 0 0 0 0 0 0 0 0 0 0 0 0 0 0 0 0 0 0 0 0 0 0 0 0 0 0 0 0 0 0 0 0 0 0 0 1 1 2 2 1
0 0 0 0 0 0 0 0 0 0 0 0 0 0 0 0 0 0 0 0 0 0 0 0 0 0 0 0 0 0 0 0 0 0 0 0 0 0 0 1 1 1 0
0 0 0 0 0 0 0 0 0 0 0 0 0 0 0 0 0 0 0 0 0 0 0 0 0 0 0 0 0 0 0 0 0 0 0 0 0 0 0 0 0 0 0
0 0 0 0 0 0 0 0 0 0 0 0 0 0 0 0 0 0 0 0 0 0 0 0 0 0 0 0 0 0 0 0 0 0 0 0 0 0 0 0 0 0 0
0 0 0 0 0 0 0 0 0 0 0 0 0 0 0 0 0 0 0 0 0 0 0 0 0 0 0 0 0 0 0 0 0 0 0 0 0 0 0 0 0 0 0
0 0 0 0 0 0 0 0 0 0 0 0 0 0 0 0 0 0 0 0 0 0 0 0 0 0 0 0 0 0 0 0 0 0 0 0 0 0 0 0 0 0 0
0 0 0 0 0 0 0 0 0 0 0 0 0 0 0 0 0 0 0 0 0 0 0 0 0 0 0 0 0 0 0 0 0 0 0 0 0 0 0 0 0 0 0
0 0 0 0 0 0 0 0 0 0 0 0 0 0 0 0 0 0 0 0 0 0 0 0 0 0 0 0 0 0 0 0 0 0 0 0 0 0 0 0 0 0 0
0 0 0 0 0 0 0 0 0 0 0 0 0 0 0 0 0 0 0 0 0 0 0 0 0 0 0 0 0 0 0 0 0 0 0 0 0 0 0 0 0 0 0
0 0 0 0 0 0 0 0 0 0 0 0 0 0 0 0 0 0 0 0 0 0 0 0 0 0 0 0 0 0 0 0 0 0 0 0 0 0 0 0 0 0 0
0 0 0 0 0 0 0 0 0 0 0 0 0 0 0 0 0 0 0 0 0 0 0 0 0 0 0 0 0 0 0 0 0 0 0 0 0 0 0 0 0 0 0
0 0 0 0 0 0 0 0 0 0 0 0 0 0 0 0 0 0 0 0 0 0 0 0 0 0 0 0 0 0 0 0 0 0 0 0 0 0 0 0 0 0 0
0 0 0 0 0 0 0 0 0 0 0 0 0 0 0 0 0 0 0 0 0 0 0 0 0 0 0 0 0 0 0 0 0 0 0 0 0 0 0 0 0 0 0
Wind_Speed
2 2 1 1 1 1 2 2 2 3 3 3 3 4 4 4 4 3 3 12 15 15 16 17 18 18 18 17 17 16 16 16 15 14 14 14 14 14 13 13 13 12 11
2 2 1 1 1 1 2 2 2 2 2 2 3 4 4 4 4 4 4 7 14 15 15 17 18 19 19 19 18 18 17 17 16 15 15 15 14 14 14 14 13 13 12
2 2 1 1 0 1 1 1 1 1 1 1 2 3 3 3 3 4 5 4 6 13 16 16 17 19 19 20 20 19 18 17 16 16 16 15 15 15 14 14 14 13 12
3 3 2 1 1 1 1 1 1 1 0 1 2 3 3 3 4 4 5 5 5 6 11 17 17 18 19 21 21 21 20 19 18 18 17 17 16 16 15 15 14 14 13
3 3 2 1 2 2 1 1 1 1 0 1 2 3 2 3 4 5 5 6 6 6 6 11 18 19 20 21 21 21 21 21 20 20 20 19 18 17 17 16 15 15 14
3 3 2 2 2 2 2 1 1 1 0 1 3 3 3 3 3 4 5 5 6 8 8 8 8 12 19 20 20 21 22 22 21 21 21 21 20 19 18 17 17 16 16
3 3 2 2 2 2 1 1 1 2 2 1 2 3 4 3 3 3 3 3 5 7 7 8 6 6 7 17 19 20 21 22 22 22 22 21 21 20 19 19 18 18 17
3 3 3 2 2 2 2 2 2 1 2 2 1 1 4 5 4 2 1 2 3 4 5 7 6 7 6 5 10 18 21 22 22 23 23 22 22 21 21 20 19 19 18
2 2 3 3 2 2 2 1 2 2 1 2 1 2 1 2 4 4 3 2 2 2 3 3 5 6 7 6 6 12 18 19 21 23 23 23 22 21 21 22 21 20 19
0 1 2 3 3 2 2 1 2 1 2 1 2 0 2 3 1 4 4 3 3 2 2 3 4 5 5 5 7 10 14 17 19 21 21 22 23 22 22 23 23 22 21
3 2 3 3 2 2 2 1 1 1 1 1 1 1 1 0 1 1 3 4 4 3 2 2 3 3 3 4 5 8 13 14 16 18 20 21 22 23 24 24 25 25 24
3 4 4 3 2 1 1 0 0 0 0 1 1 1 1 1 1 1 3 3 3 4 3 3 2 2 2 3 6 9 10 11 12 14 16 18 21 22 23 25 26 25 25
2 2 2 2 1 0 0 0 0 1 1 1 2 2 2 3 2 2 2 3 3 3 3 3 2 2 2 2 3 6 7 9 10 12 13 15 18 20 21 23 25 25 25
1 1 1 1 1 1 1 0 0 1 1 2 3 2 2 3 2 2 3 2 2 3 2 4 3 2 2 2 3 5 4 7 9 11 12 13 15 16 18 19 21 23 23
2 1 1 0 1 1 1 1 1 2 2 2 3 3 2 3 2 2 3 3 3 2 3 4 3 3 2 2 3 3 3 7 9 10 12 12 13 14 15 16 18 20 20
1 1 1 1 2 2 2 2 2 3 3 3 3 3 3 3 3 2 2 3 3 4 4 3 3 4 3 3 3 3 4 7 9 9 10 12 13 14 14 15 17 18 19
2 2 2 2 2 3 3 2 3 4 4 4 3 3 4 4 3 3 2 2 3 3 4 4 3 3 3 4 4 3 4 4 5 9 10 11 13 14 15 15 17 17 18
3 3 3 3 3 3 3 3 4 4 4 4 4 4 5 4 4 3 3 3 3 3 4 5 3 3 4 4 4 4 4 4 4 8 11 12 13 14 15 15 16 17 18
3 3 3 4 4 4 4 4 4 4 4 5 5 5 5 4 5 4 4 4 4 4 3 4 4 3 3 3 3 4 4 4 5 6 9 11 12 13 14 15 16 17 17
4 4 4 5 5 5 5 5 4 4 4 5 5 5 5 5 6 6 5 5 4 4 3 3 4 3 3 3 2 3 3 3 4 4 5 6 8 11 13 15 16 16 17
4 4 4 4 4 4 5 5 5 5 4 5 5 5 6 8 10 7 6 5 5 4 3 3 4 3 3 2 3 2 3 3 4 3 3 3 3 4 6 10 14 16 16
4 4 4 5 5 5 7 8 6 5 5 5 6 6 7 8 10 10 10 10 8 7 6 5 4 5 6 5 4 3 3 2 4 2 2 4 3 4 5 5 10 14 15
4 4 5 5 6 7 10 10 10 6 6 6 6 6 6 7 7 6 8 10 9 11 12 7 7 8 7 6 5 4 4 4 5 4 2 4 3 4 4 5 10 12 14
4 4 5 6 6 8 10 10 10 6 6 7 7 7 7 7 8 7 6 6 7 7 8 7 7 9 8 7 6 6 6 5 5 4 3 4 3 3 3 4 8 11 12
4 5 5 6 6 8 10 10 9 4 5 7 7 7 7 7 10 10 6 6 7 7 9 11 11 11 12 12 8 4 4 3 4 4 4 4 3 3 3 3 4 9 10
5 5 6 6 7 8 10 11 9 4 5 6 6 6 9 8 9 8 5 5 7 7 6 6 6 7 7 9 11 8 6 6 4 4 4 4 3 2 2 2 2 2 4
Wind_Direction
145 139 144 156 175 177 187 201 203 198 208 230 237 230 222 211 206 204 213 204 200 200 197 196 196 194 192 191 191 190 190 188 184 180 179 178 177 176 175 173 170 167 164
130 130 145 154 184 203 206 203 203 202 210 224 240 240 234 222 207 205 210 210 208 207 206 205 203 201 199 197 196 196 195 195 191 188 185 184 183 182 182 181 178 174 172
119 121 116 111 196 204 172 155 160 147 192 235 254 255 244 236 221 211 206 206 213 216 215 214 210 207 206 203 202 201 199 198 195 194 192 190 188 186 186 185 184 181 179
117 111 103 77 50 72 83 105 100 88 23 279 274 271 258 247 238 223 213 208 207 214 221 221 218 215 212 210 208 206 204 202 199 198 197 196 194 191 190 189 189 187 186
106 107 103 77 56 62 57 62 80 103 348 307 287 274 265 251 245 239 224 217 209 209 214 227 224 220 218 217 215 212 209 206 204 202 201 201 199 197 195 194 192 191 191
102 103 101 83 76 65 36 32 36 20 284 286 300 304 285 267 251 241 235 225 213 213 215 221 225 227 224 221 219 217 215 211 208 207 206 205 204 202 200 198 196 195 195
111 107 100 85 81 80 57 38 45 11 341 350 9 328 311 292 269 252 240 230 224 220 214 216 215 219 227 225 222 221 219 217 213 210 209 208 207 205 203 202 201 199 198
135 130 122 119 101 89 55 42 59 44 346 23 75 11 340 335 333 312 286 236 238 230 222 219 212 213 220 220 221 223 224 222 218 215 212 210 209 207 206 206 205 203 201
145 140 144 138 122 109 95 75 84 93 12 342 68 126 102 293 314 322 330 328 303 255 240 235 222 216 217 216 219 225 226 225 223 220 217 213 211 210 208 208 207 207 205
66 162 149 135 126 116 110 92 96 112 114 347 341 16 188 194 234 315 322 331 331 310 277 256 241 225 219 213 220 223 227 226 226 225 222 218 215 212 211 210 211 210 209
30 60 88 99 103 103 106 83 71 72 132 176 238 292 318 318 185 194 295 318 328 312 294 268 251 238 224 216 217 226 229 228 228 228 227 223 219 216 214 213 214 215 213
37 49 72 82 95 103 109 103 70 353 271 231 223 212 207 227 241 212 249 284 297 296 297 290 275 258 240 223 228 225 225 226 226 229 232 231 226 221 218 217 217 217 217
39 24 55 63 66 9 279 311 353 310 287 276 260 244 226 221 214 206 222 263 281 291 304 305 288 280 254 223 238 237 233 232 231 231 233 233 231 226 221 219 218 218 218
169 156 86 60 28 350 346 358 283 277 265 275 281 269 252 247 224 208 207 220 287 301 302 291 305 286 281 262 249 247 245 239 233 231 232 233 232 228 222 219 218 218 217
190 157 111 16 327 315 305 294 270 278 283 273 273 273 261 256 246 230 210 192 196 256 281 280 285 290 290 280 266 249 246 242 237 232 232 233 233 230 225 221 218 215 214
188 194 253 282 291 293 288 280 273 270 270 272 264 271 272 263 264 253 230 214 195 202 243 261 260 271 285 285 265 253 252 254 247 242 236 233 232 232 229 224 220 216 214
205 218 235 253 270 277 276 267 265 266 263 271 277 269 269 266 264 264 253 232 217 197 232 264 260 272 277 280 284 273 263 254 254 250 247 241 234 231 230 227 222 218 215
224 227 234 244 256 260 261 256 264 268 258 261 266 266 269 270 263 259 251 246 239 220 216 253 270 274 268 271 270 273 270 256 249 256 251 249 242 236 231 228 224 220 216
232 241 239 242 249 254 254 253 252 256 253 254 257 256 261 262 263 259 251 247 246 249 222 231 257 259 267 275 283 282 275 272 264 259 254 248 243 239 235 230 225 221 217
228 240 239 239 244 249 251 254 253 252 256 259 258 255 256 251 250 253 254 248 245 247 238 236 251 260 262 270 264 271 288 282 276 273 261 252 246 241 236 231 226 221 217
229 231 239 247 251 251 244 241 241 242 244 256 263 261 261 263 258 252 252 241 236 238 240 238 247 254 258 262 255 249 264 284 280 256 266 263 252 247 236 232 228 222 216
238 242 245 249 256 256 250 241 231 236 243 250 262 268 273 274 275 273 270 257 234 228 230 229 236 236 245 240 241 243 247 272 287 272 253 269 239 247 243 230 228 221 217
231 242 249 250 254 260 261 255 246 232 237 245 250 260 272 273 277 270 274 277 263 249 233 222 228 235 236 231 228 241 234 230 239 251 240 267 252 249 248 240 230 224 220
229 238 247 252 257 265 264 257 253 238 240 248 248 248 252 264 270 261 262 267 262 259 249 237 229 237 236 230 220 226 234 245 256 253 210 245 251 251 257 245 231 222 219
235 240 246 251 255 266 265 260 249 232 244 254 255 254 249 256 264 266 257 260 267 270 265 253 243 243 245 242 231 227 235 234 258 259 212 216 239 246 254 252 238 222 218
234 244 252 251 250 258 264 260 247 221 241 254 260 260 256 254 262 267 246 244 259 266 271 279 271 267 257 253 243 222 218 224 233 252 226 201 219 210 262 258 232 214 209